Wetbulb
76.73 76.07 75.63 73.03 72.38 71.96 73.15 73.78 71.16 67.24 68.41 71.69 72.39 75.77 77.51 77.08 78.04 77.56 77.92 76.65 74.89 72.25 69.43 68.21 68.29 69.02 69.68 70.29 70.19 67.92 66.06 65.89 65.75 64.82 64.42 63.65 63.21 61.83
76.37 76.33 75.52 75.25 76.03 75.89 75.25 75.82 75.13 72.32 69.48 73.80 73.87 76.45 77.73 78.43 77.78 76.81 78.65 75.25 73.87 72.14 70.14 67.95 67.67 67.84 68.46 68.73 68.28 66.89 65.40 65.37 65.25 64.59 64.66 64.16 64.17 63.36
78.33 78.74 78.15 77.92 77.22 77.20 77.94 77.94 76.49 75.65 72.44 74.04 75.57 75.86 76.92 77.03 77.81 78.52 79.19 78.08 77.25 72.86 71.00 68.81 67.04 67.30 67.39 67.48 67.07 66.20 65.16 64.68 64.80 64.66 64.71 64.18 63.85 64.16
77.98 77.80 77.44 77.27 78.14 78.44 77.84 77.02 75.89 75.97 74.74 72.63 74.70 76.18 75.20 75.08 76.13 78.13 77.64 77.16 76.69 75.14 70.98 68.54 66.58 66.74 65.95 66.01 65.09 64.56 63.50 63.25 63.53 63.52 63.94 63.74 62.53 62.64
77.96 78.07 77.81 78.01 77.79 77.53 77.95 77.75 77.03 76.35 76.52 74.69 73.23 74.84 75.36 76.11 75.06 75.20 76.75 77.03 77.78 75.20 69.07 67.30 67.03 66.45 65.50 64.91 64.10 62.38 61.17 60.52 60.92 60.74 61.05 60.71 61.02 61.36
79.26 79.94 79.34 78.84 77.91 78.36 78.47 77.84 77.86 77.27 76.70 75.95 74.84 74.34 73.56 73.02 73.17 72.40 71.42 72.48 73.34 76.19 71.56 69.16 67.25 66.63 65.84 64.80 64.10 62.92 60.32 58.46 57.49 57.53 57.53 57.13 57.04 58.46
78.00 78.86 79.64 78.67 74.86 76.26 78.00 77.80 78.27 76.91 74.98 73.18 72.30 72.30 72.19 71.92 71.92 72.90 72.37 72.42 74.25 75.92 70.61 67.68 66.15 65.76 65.35 65.55 64.44 64.18 61.51 59.74 58.10 57.17 56.56 55.28 54.84 55.87
76.70 77.77 78.27 75.37 74.29 69.72 69.43 70.26 74.11 75.33 74.49 74.35 73.93 73.16 73.50 73.66 74.16 73.98 73.83 73.10 71.38 75.86 72.36 70.32 71.31 70.52 68.62 65.68 63.92 63.29 61.63 60.58 60.23 57.99 57.00 56.16 55.38 55.34
77.41 77.35 77.42 77.84 73.95 77.44 72.15 67.92 68.49 67.59 68.59 73.86 73.75 73.57 73.40 74.31 75.24 75.17 74.29 73.46 72.37 73.85 70.30 67.52 69.73 69.98 69.35 63.43 62.41 61.70 60.16 60.50 58.62 58.04 57.78 57.19 56.33 55.46
77.34 76.72 76.99 76.91 76.69 75.24 75.69 75.36 75.44 75.74 74.62 72.89 72.15 73.55 74.81 75.72 76.14 75.80 74.80 74.15 73.29 72.94 69.82 66.50 69.87 68.87 65.27 62.27 61.34 59.29 58.60 57.84 58.14 57.37 56.29 55.45 54.31 53.32
76.39 76.96 76.94 76.56 71.44 66.66 73.51 74.74 75.02 75.41 73.29 66.87 65.84 65.75 65.55 65.38 66.67 69.32 69.95 70.16 69.28 69.95 68.06 67.07 67.40 65.98 63.04 63.33 60.83 58.38 56.91 56.25 56.28 56.34 55.59 54.58 53.30 52.55
75.50 75.56 68.35 72.23 67.51 65.38 72.52 74.17 73.59 74.91 76.12 76.75 76.88 75.14 70.88 74.07 65.90 70.31 71.52 69.33 69.17 66.63 68.17 66.07 65.14 61.82 59.15 60.11 59.16 56.63 55.57 54.92 54.18 54.27 54.13 53.76 52.68 51.76
74.87 74.75 75.17 60.47 57.61 56.85 56.25 69.52 73.36 73.54 74.36 75.74 76.38 75.93 75.86 76.30 76.53 75.62 75.66 73.80 72.78 71.54 68.81 66.96 62.56 58.88 58.24 57.83 57.65 57.30 55.72 54.11 53.06 52.33 50.97 51.38 51.27 51.89
73.89 75.41 75.34 58.59 58.95 60.40 61.49 61.48 59.32 62.31 71.58 73.09 73.50 73.63 73.92 75.67 75.29 75.39 73.07 69.64 69.03 70.20 67.70 64.94 62.14 59.64 57.21 57.34 56.61 57.72 57.15 56.18 53.54 54.79 53.79 52.25 50.20 50.55
72.21 68.40 60.39 58.32 58.95 60.58 57.13 58.18 58.12 70.38 72.60 72.54 72.85 73.55 75.05 75.16 75.08 70.16 67.20 65.29 65.18 65.49 63.73 62.91 62.33 60.48 59.73 59.01 55.91 55.07 54.79 56.65 58.77 56.79 56.85 54.63 51.68 51.24
62.65 65.95 65.18 61.60 60.75 66.17 65.88 68.55 70.84 73.80 73.17 73.64 74.57 76.07 74.33 74.12 74.22 71.44 68.33 66.96 65.45 62.34 64.08 62.87 62.54 60.58 59.38 58.66 57.07 54.40 55.88 55.80 60.43 60.19 58.25 56.56 56.86 56.07
53.03 66.50 70.36 72.98 74.47 75.05 75.20 75.95 74.84 75.17 75.01 74.62 74.21 73.70 74.26 73.71 72.63 70.57 69.38 66.41 65.22 62.55 59.97 59.99 60.83 60.92 60.18 58.42 54.18 55.10 54.80 58.14 58.61 58.32 55.36 54.86 55.33 51.80
61.62 68.34 69.66 68.55 67.97 68.62 68.93 70.12 72.61 71.93 73.64 73.65 73.73 73.36 73.41 74.10 72.16 70.93 68.40 65.54 64.57 64.38 61.18 58.99 58.11 56.55 56.00 56.67 58.38 56.33 56.70 57.98 57.96 57.57 54.82 53.77 49.92 49.38
63.77 63.39 63.32 62.49 62.53 62.69 62.74 63.31 63.93 66.58 68.31 69.78 71.97 73.77 73.89 73.63 70.27 70.80 67.79 65.37 63.82 63.95 61.63 59.79 57.81 57.13 54.21 54.10 56.57 51.64 54.75 56.05 57.29 56.16 55.81 54.46 50.98 49.96
63.24 62.21 60.77 60.18 59.50 58.86 58.67 58.41 59.34 60.22 62.41 64.00 65.94 67.92 70.96 72.31 72.02 69.57 66.59 65.43 64.05 63.05 62.29 59.58 58.63 58.23 57.92 56.84 55.51 50.53 47.97 53.35 56.34 56.10 50.95 48.05 49.01 51.10
62.80 61.78 59.89 58.44 57.51 56.34 55.87 55.36 55.87 56.87 57.55 59.20 61.03 62.92 65.83 69.57 70.82 69.98 68.04 59.85 61.23 63.56 62.03 58.75 59.82 59.59 61.23 59.44 53.12 50.59 47.16 48.80 50.21 53.71 54.48 48.90 47.74 47.16
61.81 61.05 59.87 57.77 56.13 55.08 54.21 53.46 53.44 53.82 54.05 54.49 54.79 56.29 59.62 64.86 67.58 67.27 66.84 65.12 63.96 64.14 62.97 63.33 62.62 60.24 58.29 56.52 54.97 53.60 48.51 47.31 47.80 48.47 48.96 49.60 49.79 49.45
60.21 59.60 58.51 56.42 55.47 54.76 53.26 52.96 52.30 52.41 51.80 51.51 51.05 52.90 55.27 59.80 63.90 65.24 66.43 65.99 64.31 63.96 63.00 62.10 60.63 60.14 59.15 57.90 56.14 54.57 51.18 49.06 48.44 45.52 43.82 47.71 48.64 49.27
MSLP
1018.57 1018.75 1018.81 1018.58 1018.23 1017.89 1018.01 1018.10 1018.21 1018.22 1017.63 1016.55 1016.24 1015.48 1015.12 1015.05 1014.99 1014.88 1014.70 1014.40 1014.33 1014.32 1014.32 1014.43 1014.57 1014.80 1015.18 1015.40 1015.71 1016.23 1016.62 1016.96 1017.22 1017.46 1017.68 1017.81 1017.94 1018.10
1018.10 1018.12 1018.25 1018.13 1017.87 1017.49 1017.53 1017.59 1017.65 1017.75 1017.45 1016.64 1016.06 1015.53 1015.14 1014.59 1014.43 1014.18 1013.87 1013.65 1013.53 1013.40 1013.46 1013.50 1013.78 1014.18 1014.60 1014.83 1015.20 1015.61 1016.09 1016.47 1016.85 1017.24 1017.36 1017.59 1017.69 1017.77
1017.64 1017.65 1017.67 1017.77 1017.82 1017.49 1017.26 1017.31 1017.22 1017.05 1016.99 1016.15 1015.83 1015.46 1015.03 1014.63 1014.02 1013.49 1013.12 1012.91 1012.71 1012.59 1012.37 1012.61 1013.13 1013.96 1014.06 1014.48 1014.66 1014.96 1015.35 1015.90 1016.32 1016.70 1016.94 1017.16 1017.34 1017.43
1016.95 1017.03 1017.11 1017.20 1017.26 1017.21 1017.08 1016.95 1016.79 1016.48 1016.43 1016.04 1015.59 1015.34 1014.86 1014.09 1013.53 1013.03 1012.57 1012.03 1012.03 1011.76 1011.31 1012.01 1012.76 1013.28 1013.56 1014.01 1014.35 1014.45 1014.83 1015.30 1015.79 1016.17 1016.50 1016.85 1016.95 1017.08
1016.20 1016.26 1016.41 1016.51 1016.59 1016.56 1016.58 1016.51 1016.33 1016.13 1015.97 1015.86 1015.36 1014.80 1014.22 1013.60 1013.07 1012.71 1012.34 1012.27 1011.70 1011.00 1011.29 1011.94 1012.49 1012.78 1013.30 1013.73 1014.17 1014.21 1014.29 1014.86 1015.29 1015.77 1016.12 1016.40 1016.53 1016.64
1015.66 1015.56 1015.59 1015.65 1015.78 1015.86 1015.87 1015.86 1015.78 1015.72 1015.57 1015.36 1014.86 1014.29 1013.84 1013.35 1013.11 1012.87 1012.55 1012.14 1011.59 1011.13 1011.88 1012.45 1012.59 1012.63 1013.09 1013.42 1013.88 1014.44 1014.82 1014.81 1014.98 1015.39 1015.72 1015.91 1016.14 1016.32
1015.40 1015.19 1015.08 1015.07 1015.07 1015.06 1015.16 1015.18 1015.20 1015.21 1015.03 1014.94 1014.54 1014.28 1013.65 1013.37 1013.33 1012.98 1012.63 1012.28 1011.87 1011.57 1012.25 1012.77 1012.91 1012.85 1013.02 1013.03 1013.84 1013.62 1014.08 1014.60 1014.76 1015.09 1015.28 1015.60 1015.78 1015.85
1014.93 1014.77 1014.76 1014.56 1014.48 1014.49 1014.38 1014.34 1014.36 1014.40 1014.37 1014.29 1014.10 1013.84 1013.25 1013.02 1012.77 1012.82 1012.53 1012.37 1011.99 1011.52 1012.12 1012.62 1012.42 1012.72 1012.31 1012.45 1013.00 1013.42 1013.58 1014.37 1014.62 1014.82 1014.97 1015.20 1015.37 1015.42
1013.80 1014.04 1014.00 1013.73 1013.59 1013.60 1013.45 1013.39 1013.36 1013.22 1013.39 1013.34 1013.57 1013.20 1012.90 1012.52 1012.49 1012.27 1012.19 1012.15 1011.88 1011.55 1012.43 1012.01 1012.21 1011.92 1011.84 1012.11 1012.24 1013.04 1013.45 1013.92 1014.52 1014.69 1014.85 1014.94 1015.15 1015.28
1013.06 1012.99 1013.05 1013.04 1013.04 1013.04 1013.03 1012.99 1012.81 1012.56 1012.36 1012.62 1012.73 1012.39 1012.17 1011.75 1011.83 1011.53 1011.55 1011.43 1011.39 1010.84 1011.78 1012.42 1011.70 1012.02 1012.49 1012.65 1012.70 1013.12 1013.43 1013.86 1014.33 1014.54 1014.65 1014.90 1015.03 1015.17
1012.23 1012.18 1012.34 1012.51 1012.44 1012.45 1012.73 1012.54 1012.19 1011.64 1011.06 1011.18 1011.12 1010.91 1010.90 1011.04 1011.09 1011.51 1011.12 1011.11 1010.33 1011.09 1011.78 1012.05 1012.02 1012.37 1012.65 1012.64 1012.79 1012.97 1013.40 1013.85 1014.10 1014.35 1014.47 1014.67 1014.84 1014.97
1011.90 1011.62 1011.50 1011.51 1011.44 1011.54 1011.76 1011.68 1011.65 1011.09 1010.96 1010.87 1010.76 1010.61 1010.14 1010.35 1009.91 1010.61 1010.53 1010.74 1010.93 1010.83 1011.25 1011.78 1012.13 1012.52 1012.78 1012.59 1012.78 1013.19 1013.32 1013.78 1014.13 1014.22 1014.39 1014.65 1014.81 1014.83
1011.80 1011.64 1011.13 1011.01 1011.12 1011.33 1011.63 1011.78 1011.05 1010.72 1010.64 1010.66 1010.31 1010.06 1009.83 1009.60 1009.44 1009.61 1009.79 1010.04 1010.27 1010.48 1010.69 1011.22 1011.99 1012.53 1012.80 1013.02 1012.90 1012.82 1012.72 1013.20 1013.80 1014.08 1014.34 1014.50 1014.64 1014.82
1011.34 1011.23 1011.06 1010.69 1010.92 1010.95 1010.86 1010.76 1010.66 1011.03 1010.95 1010.29 1010.07 1009.66 1009.41 1009.37 1009.15 1009.22 1009.53 1009.66 1009.89 1010.21 1010.37 1010.88 1011.64 1012.18 1012.70 1012.85 1012.56 1012.11 1012.31 1012.45 1012.98 1013.56 1013.84 1014.04 1014.57 1014.74
1011.38 1011.58 1011.14 1010.30 1009.98 1009.87 1009.77 1010.20 1010.30 1010.37 1009.96 1009.61 1009.29 1008.95 1008.90 1008.77 1009.01 1009.49 1010.05 1010.26 1010.65 1011.01 1011.31 1011.44 1011.63 1012.07 1012.26 1012.36 1012.43 1012.36 1012.41 1012.26 1012.21 1012.91 1013.27 1013.76 1014.10 1014.26
1011.90 1011.17 1010.58 1010.19 1009.97 1009.62 1009.48 1009.32 1009.37 1009.13 1008.93 1008.81 1008.62 1008.53 1008.49 1008.56 1008.65 1009.32 1010.11 1010.32 1010.64 1011.25 1011.43 1011.81 1012.00 1012.22 1012.44 1012.42 1012.39 1012.37 1012.34 1012.30 1011.78 1012.07 1012.53 1013.05 1013.28 1013.66
1011.65 1010.70 1009.91 1009.54 1009.21 1009.27 1009.16 1008.74 1008.73 1008.70 1008.80 1008.71 1008.64 1008.45 1008.35 1008.15 1008.46 1008.70 1008.85 1009.77 1010.02 1010.58 1011.39 1011.90 1012.28 1012.37 1012.52 1012.49 1012.48 1012.33 1012.18 1012.29 1012.17 1012.34 1012.61 1013.26 1013.95 1014.59
1011.65 1010.72 1010.56 1010.74 1010.58 1010.59 1010.39 1009.91 1009.58 1009.43 1009.09 1008.76 1008.46 1008.22 1008.01 1007.67 1007.74 1008.21 1008.43 1009.29 1009.93 1009.64 1010.60 1011.44 1012.04 1012.67 1012.76 1012.49 1012.02 1012.10 1012.21 1012.18 1012.15 1012.39 1012.50 1013.31 1014.79 1015.41
1011.60 1011.90 1011.84 1011.96 1011.63 1011.47 1011.51 1011.35 1010.88 1010.33 1009.96 1009.43 1008.93 1008.39 1008.03 1007.66 1007.59 1007.98 1008.38 1009.14 1009.60 1009.46 1009.88 1010.61 1011.47 1011.94 1012.23 1012.15 1012.23 1012.29 1012.37 1012.41 1012.26 1012.35 1012.26 1012.80 1014.32 1015.16
1011.61 1011.71 1011.97 1012.28 1012.25 1012.28 1012.34 1012.33 1012.00 1011.34 1010.74 1010.29 1009.73 1009.05 1008.40 1007.96 1007.54 1007.65 1008.08 1008.61 1008.77 1009.00 1009.54 1010.08 1010.63 1010.98 1011.28 1011.30 1011.93 1012.77 1012.77 1012.65 1012.49 1012.29 1013.28 1014.17 1014.97 1015.28
1011.37 1011.58 1011.99 1012.04 1012.39 1012.55 1012.81 1012.99 1012.96 1012.34 1011.56 1010.89 1010.41 1009.84 1009.07 1008.11 1007.25 1007.08 1007.46 1007.96 1008.01 1008.41 1009.00 1009.55 1009.82 1010.29 1010.58 1010.94 1011.64 1012.53 1013.29 1012.97 1012.54 1012.67 1013.14 1013.86 1014.76 1015.26
1011.66 1011.79 1011.69 1012.02 1012.45 1012.58 1012.78 1013.09 1013.06 1012.76 1012.19 1011.70 1011.06 1010.34 1009.60 1008.64 1007.74 1007.10 1007.18 1007.51 1007.81 1007.95 1008.18 1008.66 1009.15 1009.93 1010.52 1010.48 1010.86 1011.58 1012.67 1013.39 1013.35 1013.27 1013.53 1013.62 1013.97 1014.22
1011.44 1011.88 1011.99 1012.28 1012.63 1012.37 1012.63 1012.99 1012.83 1012.82 1012.70 1012.34 1011.68 1010.51 1009.99 1009.28 1008.44 1007.78 1007.31 1007.20 1007.44 1007.77 1008.06 1008.32 1009.30 1009.57 1009.82 1010.11 1010.34 1010.94 1011.74 1012.52 1012.88 1013.68 1014.80 1014.73 1014.66 1014.47
Wind_Speed
4 5 4 5 5 3 3 3 2 3 4 6 4 4 2 3 1 5 5 9 10 13 16 16 15 14 13 12 12 12 12 11 9 8 6 6 8 8
5 6 6 4 5 4 4 4 4 4 6 4 4 3 5 4 6 7 7 10 11 12 15 15 15 13 12 13 11 13 13 12 11 9 9 8 8 10
6 5 6 5 5 6 3 3 4 4 5 5 3 6 7 8 8 7 7 7 6 15 15 15 13 7 11 12 12 14 14 13 12 10 10 10 9 12
9 8 7 6 8 8 6 6 5 6 4 10 6 6 5 9 11 8 6 9 6 10 12 12 13 11 10 10 13 13 13 12 11 10 9 9 9 11
9 9 9 8 7 6 5 5 5 5 5 6 8 7 8 7 7 5 5 5 5 12 5 8 11 10 7 10 11 12 12 11 10 9 9 9 10 11
7 6 7 9 9 7 7 7 7 8 8 8 9 7 5 7 4 4 9 7 6 4 8 3 5 6 8 8 7 9 7 9 9 8 8 9 9 10
11 7 8 9 11 10 7 7 7 5 7 8 10 8 10 8 7 8 7 8 7 1 3 0 1 3 4 7 7 11 11 10 8 7 7 7 7 7
11 10 10 10 9 13 15 16 13 12 12 10 9 10 11 10 8 8 8 8 8 2 4 2 2 4 5 6 8 9 10 8 6 6 5 6 7 7
10 11 11 12 13 13 15 18 18 17 14 14 13 14 14 13 10 10 11 7 8 7 4 3 2 3 2 3 13 9 7 6 8 5 5 4 5 4
10 11 10 10 10 10 11 11 9 10 10 8 12 14 14 14 11 12 10 8 4 3 3 3 1 2 2 3 9 9 7 6 6 6 6 5 4 4
12 12 12 13 15 14 10 13 13 14 12 14 16 17 15 14 12 4 8 4 4 4 2 3 1 2 1 3 3 8 7 6 7 8 8 7 5 4
12 14 15 18 18 19 14 14 13 14 11 10 9 10 8 9 11 6 3 5 5 0 4 4 2 2 0 1 3 3 3 5 7 8 8 6 4 3
10 10 9 10 5 5 3 11 13 9 9 6 7 8 9 7 5 3 5 4 4 1 4 3 2 2 1 1 2 5 6 4 4 4 5 7 7 3
10 9 5 3 9 10 3 11 14 9 8 8 8 9 9 5 4 2 5 5 3 0 8 4 3 3 3 3 2 2 5 5 5 5 4 5 4 3
4 8 13 12 15 10 14 7 6 5 6 7 8 9 5 4 1 5 4 6 6 5 3 2 3 3 3 1 2 2 2 4 5 6 6 5 5 4
7 8 9 10 14 13 7 7 6 6 7 7 7 4 3 3 3 4 2 3 2 2 3 3 3 3 2 2 1 1 2 2 1 3 5 5 6 4
8 6 6 5 5 6 7 5 5 5 4 6 7 6 5 4 3 2 4 3 4 4 4 3 3 3 2 2 2 3 3 3 4 3 4 4 5 8
3 5 8 7 8 9 9 9 8 8 7 7 7 7 6 5 4 5 2 4 4 4 4 4 4 2 0 4 7 2 2 2 4 4 3 5 6 5
5 5 5 5 5 5 6 6 6 7 10 9 10 8 7 7 3 6 6 4 5 3 5 7 5 4 4 4 2 7 2 1 2 4 4 3 6 4
3 3 4 5 5 6 6 6 7 7 7 8 9 9 9 7 7 6 7 6 5 4 5 6 6 7 5 4 3 2 10 2 2 3 5 6 8 14
2 3 3 3 3 4 4 5 6 6 6 6 7 8 10 9 9 6 5 6 6 5 5 6 7 8 3 3 3 3 3 13 9 3 4 5 4 5
4 4 4 4 3 3 3 4 4 5 6 5 5 6 8 9 7 3 2 5 4 5 5 5 7 6 4 5 4 5 5 4 13 22 20 12 1 4
3 3 4 3 3 2 3 3 5 5 5 6 6 5 6 9 7 7 4 3 5 5 4 4 5 5 5 6 4 5 7 7 5 4 6 13 13 14
Wind_Direction
238 217 232 269 281 222 243 234 225 292 292 311 314 316 270 276 193 238 238 250 254 231 226 221 215 213 212 217 205 193 197 203 201 196 212 231 243 239
209 219 214 243 270 229 219 239 224 222 266 262 275 305 314 285 274 260 238 247 256 262 230 221 212 208 201 215 203 191 202 201 200 203 209 221 239 232
233 272 209 224 277 296 288 303 254 232 259 283 309 295 288 282 276 257 236 237 245 256 251 212 200 226 204 216 198 196 200 199 202 206 215 216 233 236
208 215 221 225 230 238 255 266 265 272 271 276 281 276 285 284 271 253 245 254 251 264 247 195 157 207 213 216 205 198 197 201 202 207 212 221 239 245
218 212 213 217 228 234 255 278 288 288 284 290 288 281 276 270 288 295 271 265 260 266 112 125 177 196 201 226 222 207 197 197 196 206 220 226 240 245
252 238 222 217 220 225 232 240 250 257 266 261 269 276 295 311 310 328 321 311 302 5 70 102 183 195 208 220 214 227 219 210 193 196 210 231 242 247
255 249 246 239 234 229 232 236 245 265 273 283 280 286 287 300 300 297 297 305 307 336 125 270 202 157 200 194 228 213 210 213 198 208 219 228 236 237
239 247 251 255 248 239 236 233 235 247 256 260 271 272 277 279 288 290 293 308 308 67 2 170 251 226 194 198 188 191 200 217 217 223 216 220 230 241
225 227 234 240 236 243 241 239 244 250 246 253 261 266 277 275 279 281 286 289 292 316 13 274 264 246 44 103 142 163 159 163 221 209 204 200 222 238
247 250 252 259 263 272 277 278 263 251 242 234 235 251 257 264 259 264 267 267 290 297 138 266 285 73 100 130 154 148 151 188 181 169 173 194 214 255
244 245 249 257 259 253 254 260 261 265 264 252 255 256 250 262 270 296 272 248 252 265 6 212 71 101 19 129 147 157 161 178 193 185 178 200 218 262
250 246 232 238 243 244 242 251 257 257 263 273 281 279 267 266 256 207 277 296 278 285 168 173 142 155 50 183 145 153 164 200 199 193 202 204 203 265
254 256 249 82 64 301 281 273 255 272 276 275 274 281 284 279 275 231 202 219 284 236 153 137 143 124 76 247 227 197 180 154 185 204 212 217 214 212
281 270 293 62 297 260 261 241 252 272 276 270 269 272 277 280 309 66 30 65 55 27 162 143 135 148 156 182 237 146 169 180 167 192 182 193 180 215
244 301 306 314 310 254 241 258 263 232 232 245 255 261 251 277 227 82 81 79 62 47 61 53 117 141 170 164 153 167 188 223 189 197 173 172 168 184
1 325 302 293 274 264 290 234 217 221 227 247 261 273 286 280 248 134 175 147 123 110 91 122 115 140 154 200 170 231 233 279 173 157 134 172 165 114
331 298 297 286 287 309 293 269 279 303 301 290 279 274 260 250 200 205 143 159 178 153 143 124 98 62 63 180 195 232 241 267 130 118 96 72 62 85
239 344 5 17 21 7 7 3 360 354 340 322 311 286 265 256 252 181 156 166 219 154 135 146 142 128 307 266 221 228 279 160 133 134 137 114 98 80
35 14 22 9 14 12 2 354 339 341 334 339 339 319 304 286 259 182 170 166 212 154 155 147 166 185 183 224 158 19 191 80 141 179 151 102 121 111
74 53 33 11 9 5 357 347 334 333 336 329 321 317 314 303 282 178 170 191 186 147 164 161 181 200 214 196 181 90 25 287 276 178 108 78 83 102
66 87 89 62 34 15 2 342 326 324 327 337 338 332 321 308 284 178 184 228 165 169 177 180 200 204 154 124 117 142 76 42 55 38 120 133 150 163
10 8 54 53 39 31 12 345 329 336 341 334 330 332 328 328 321 319 224 194 201 187 174 191 158 156 182 196 194 134 143 112 67 67 55 51 148 182
29 21 9 23 350 25 27 346 348 341 340 333 322 337 336 327 328 335 291 196 176 185 168 154 162 178 199 203 189 155 136 150 151 102 56 52 59 70